FW4608 Weather Reports


Display with metric or nautical units.
time (UTC)temp
F
wind
direction
speed
MPH
gust
MPH
rain 1hr
in
rain 24hr
in
rain mn
in
humidity
%
barometer
mb
20260905065030 75 284 0.0 0.0 0.00 0.22 0.00 95 1013.5
20260905064534 75 284 0.0 0.0 0.00 0.22 0.00 95 1013.6
20260905064031 75 284 0.0 0.0 0.00 0.22 0.00 95 1013.5
20260905063630 75 284 0.0 0.0 0.00 0.22 0.00 95 1013.5
20260905063028 75 284 0.0 0.0 0.00 0.22 0.00 95 1013.6
20260905062527 75 284 0.0 0.0 0.00 0.22 0.00 95 1013.6
20260905062026 75 284 0.0 0.0 0.00 0.22 0.00 95 1013.7
20260905061626 75 284 0.0 0.0 0.00 0.22 0.00 95 1013.8
20260905061024 75 284 0.0 0.0 0.00 0.22 0.00 95 1013.8
20260905060525 75 284 0.0 0.0 0.00 0.22 0.00 95 1013.9
20260905060033 75 284 0.0 0.0 0.00 0.22 0.00 95 1013.7
20260905055521 75 284 0.0 0.0 0.00 0.22 0.00 95 1013.7
20260905055020 75 284 0.0 0.0 0.00 0.22 0.00 95 1013.9
20260905054520 75 284 0.0 0.0 0.00 0.22 0.00 95 1014.1
20260905054018 75 284 0.0 0.0 0.00 0.22 0.00 95 1014.1
20260905053519 75 284 0.0 0.0 0.00 0.22 0.00 95 1014.1
20260905053028 75 284 0.0 0.0 0.00 0.22 0.00 95 1014.1
20260905052519 75 284 0.0 0.0 0.00 0.22 0.00 95 1014.3
20260905052015 75 284 0.0 0.0 0.00 0.22 0.00 95 1014.4
20260905051514 75 284 0.0 0.0 0.00 0.22 0.00 95 1014.4
20260905051012 75 284 0.0 0.0 0.00 0.22 0.00 95 1014.4
20260905050514 75 284 0.0 0.0 0.00 0.22 0.00 95 1014.3
20260905050012 75 284 0.0 0.0 0.00 0.22 0.00 95 1014.4
20260905045513 75 284 0.0 0.0 0.00 0.22 0.00 95 1014.5
20260905045010 75 284 0.0 0.0 0.00 0.22 0.00 95 1014.5
20260905044510 75 284 0.0 0.0 0.00 0.22 0.00 95 1014.5
20260905044012 75 285 0.0 0.0 0.00 0.22 0.00 95 1014.5
20260905043510 75 285 0.0 0.0 0.00 0.22 0.00 95 1014.4
20260905043008 75 285 0.0 0.0 0.00 0.22 0.00 95 1014.3
20260905042506 75 285 0.0 0.0 0.00 0.22 0.00 95 1014.3
20260905042007 75 285 0.0 0.0 0.00 0.22 0.00 95 1014.2
20260905041506 75 285 0.0 0.0 0.00 0.22 0.00 95 1014.3
20260905041004 75 269 0.0 0.0 0.00 0.22 0.00 95 1014.3
20260905040503 75 269 0.0 0.0 0.00 0.22 0.00 95 1014.3
20260905040002 75 245 0.0 0.0 0.00 0.22 0.22 95 1014.3
20260905035501 75 245 0.0 0.0 0.00 0.22 0.22 95 1014.5
20260905035001 75 245 0.0 0.0 0.00 0.22 0.22 95 1014.6
20260905034501 75 245 0.0 0.0 0.00 0.22 0.22 95 1014.5
20260905034059 75 245 0.0 0.0 0.00 0.22 0.22 95 1014.6
20260905033600 75 245 0.0 0.0 0.00 0.22 0.22 95 1014.6
20260905033102 75 245 0.0 0.0 0.00 0.22 0.22 95 1014.5
20260905032559 75 245 0.0 0.0 0.00 0.22 0.22 95 1014.6
20260905032058 75 245 0.0 0.0 0.00 0.22 0.22 95 1014.7
20260905031559 75 245 0.0 0.0 0.00 0.22 0.22 95 1014.8
20260905031056 75 245 0.0 0.0 0.00 0.22 0.22 95 1014.9
20260905030556 75 245 0.0 0.0 0.00 0.22 0.22 95 1014.8
20260905030115 75 245 0.0 0.0 0.00 0.22 0.22 95 1014.8
20260905025554 75 245 0.0 0.0 0.00 0.22 0.22 95 1014.8
20260905025054 75 246 0.0 0.0 0.00 0.22 0.22 94 1014.9
20260905024555 75 245 0.0 0.0 0.00 0.22 0.22 95 1015.0
20260905024053 75 246 0.0 0.0 0.00 0.22 0.22 95 1015.0
20260905023554 75 245 0.0 0.0 0.00 0.22 0.22 94 1015.0
20260905023052 75 245 0.0 0.0 0.00 0.22 0.22 94 1015.0
20260905022551 75 245 0.0 0.0 0.00 0.22 0.22 94 1015.0
20260905022052 75 245 0.0 0.0 0.00 0.22 0.22 94 1015.0
20260905021550 75 245 0.0 0.0 0.00 0.22 0.22 94 1015.1
20260905021048 75 245 0.0 0.0 0.00 0.22 0.22 94 1015.1
20260905020551 75 245 0.0 0.0 0.00 0.22 0.22 94 1015.0
20260905020100 75 245 0.0 0.0 0.00 0.22 0.22 94 1015.0
20260905015548 75 245 0.0 0.0 0.00 0.22 0.22 94 1015.0
20260905015047 75 245 0.0 1.0 0.00 0.22 0.22 94 1014.9
20260905014548 75 245 0.0 1.0 0.00 0.22 0.22 94 1015.0
20260905014047 75 261 0.0 0.0 0.00 0.22 0.22 94 1015.1
20260905013545 75 157 0.0 0.0 0.00 0.22 0.22 94 1015.0
20260905013044 75 261 0.0 0.0 0.00 0.22 0.22 94 1015.0
20260905012543 75 261 0.0 0.0 0.00 0.22 0.22 94 1015.1
20260905012043 75 314 0.0 0.0 0.00 0.22 0.22 94 1015.1
20260905011542 75 354 0.0 1.0 0.00 0.22 0.22 94 1015.1
20260905011041 75 266 0.0 2.0 0.00 0.22 0.22 94 1014.9
20260905010541 75 269 0.0 2.0 0.00 0.22 0.22 93 1014.9
20260905010040 75 227 0.0 0.0 0.00 0.22 0.22 94 1014.8
20260905005537 75 60 0.0 0.0 0.00 0.22 0.22 94 1014.8
20260905005038 75 53 0.0 0.0 0.00 0.22 0.22 94 1014.8
20260905004541 75 53 0.0 1.0 0.00 0.22 0.22 94 1014.6
20260905004035 76 108 0.0 1.0 0.00 0.22 0.22 93 1014.5
20260905003535 76 110 0.0 1.0 0.00 0.22 0.22 93 1014.5
20260905003035 76 274 0.0 1.0 0.00 0.22 0.22 93 1014.5
20260905002534 76 298 0.0 0.0 0.00 0.22 0.22 93 1014.4
20260905002034 77 158 0.0 0.0 0.00 0.22 0.22 93 1014.3
20260905001534 77 158 0.0 1.0 0.00 0.22 0.22 93 1014.4
20260905001036 78 287 0.0 1.0 0.00 0.22 0.22 93 1014.5
20260905000532 78 283 0.0 1.0 0.00 0.22 0.22 93 1014.4
20260905000031 79 37 0.0 1.0 0.00 0.22 0.22 93 1014.4
20260904235531 80 120 0.0 1.0 0.00 0.22 0.22 94 1014.1
20260904235031 80 159 0.0 0.0 0.00 0.22 0.22 95 1014.2
20260904234529 80 245 0.0 0.0 0.00 0.22 0.22 95 1014.0
20260904234029 80 245 0.0 0.0 0.00 0.22 0.22 95 1014.1
20260904233528 80 245 0.0 0.0 0.00 0.22 0.22 94 1014.1
20260904233028 80 245 0.0 0.0 0.00 0.22 0.22 94 1014.1
20260904232528 80 245 0.0 0.0 0.00 0.22 0.22 94 1014.0
20260904232026 81 245 0.0 0.0 0.00 0.22 0.22 94 1014.0
20260904231528 81 245 0.0 0.0 0.00 0.22 0.22 94 1014.0
20260904231026 81 245 0.0 0.0 0.00 0.22 0.22 94 1014.2
20260904230525 81 245 0.0 0.0 0.01 0.22 0.22 94 1014.2
20260904230024 81 245 0.0 0.0 0.01 0.22 0.22 94 1014.2
20260904225523 81 245 0.0 0.0 0.01 0.22 0.22 94 1014.2
20260904225022 81 245 0.0 0.0 0.02 0.22 0.22 94 1014.0
20260904224524 81 245 0.0 0.0 0.02 0.22 0.22 94 1014.1
20260904224024 81 245 0.0 0.0 0.02 0.22 0.22 94 1014.1
20260904223521 81 245 0.0 0.0 0.02 0.22 0.22 94 1014.3
20260904223025 81 245 0.0 0.0 0.03 0.22 0.22 94 1014.3
20260904222522 81 245 0.0 0.0 0.03 0.22 0.22 94 1014.3
20260904222019 81 245 0.0 0.0 0.03 0.22 0.22 94 1014.2
20260904221519 81 245 0.0 0.0 0.04 0.22 0.22 94 1013.9
20260904221018 81 245 0.0 0.0 0.03 0.21 0.21 94 1014.0
20260904220518 81 245 0.0 0.0 0.03 0.21 0.21 94 1014.1
20260904220023 81 245 0.0 0.0 0.04 0.21 0.21 94 1014.2
20260904215516 81 245 0.0 0.0 0.03 0.20 0.20 94 1014.4
20260904215017 81 245 0.0 0.0 0.03 0.20 0.20 94 1014.3
20260904214516 81 245 0.0 0.0 0.04 0.20 0.20 94 1014.2
20260904214015 81 245 0.0 0.0 0.04 0.20 0.20 94 1014.1
20260904213518 81 245 0.0 0.0 0.03 0.19 0.19 94 1014.0
20260904213025 81 245 0.0 0.0 0.03 0.19 0.19 94 1013.9
20260904212513 80 245 0.0 0.0 0.03 0.19 0.19 94 1014.2
20260904212013 81 243 0.0 0.0 0.02 0.18 0.18 94 1014.3
20260904211512 81 174 0.0 0.0 0.02 0.18 0.18 94 1014.0
20260904211014 81 174 0.0 0.0 0.03 0.18 0.18 94 1013.8
20260904210511 81 175 0.0 0.0 0.02 0.17 0.17 94 1013.7
20260904210024 80 175 0.0 0.0 0.02 0.17 0.17 94 1013.8
20260904205514 80 175 0.0 0.0 0.03 0.17 0.17 94 1013.6
20260904205011 80 144 0.0 0.0 0.03 0.17 0.17 94 1013.6
20260904204509 80 146 0.0 0.0 0.03 0.16 0.16 94 1013.7
20260904204008 80 146 0.0 0.0 0.05 0.16 0.16 94 1013.7
20260904203508 80 146 0.0 0.0 0.08 0.16 0.16 93 1013.6
20260904203007 80 146 0.0 0.0 0.14 0.16 0.16 93 1013.6
20260904202505 80 326 0.0 0.0 0.16 0.16 0.16 93 1013.7
20260904202005 79 324 0.0 0.0 0.16 0.16 0.16 93 1013.9
20260904201505 79 324 0.0 0.0 0.16 0.16 0.16 92 1013.6
20260904201005 79 324 0.0 0.0 0.15 0.15 0.15 92 1013.6
20260904200502 79 326 0.0 1.0 0.15 0.15 0.15 91 1013.9
20260904200002 79 326 0.0 2.0 0.15 0.19 0.15 90 1014.2
20260904195502 79 87 0.0 2.0 0.14 0.18 0.14 89 1014.3
20260904195002 80 358 0.0 1.0 0.14 0.18 0.14 90 1014.4
20260904194501 81 161 0.0 0.0 0.12 0.16 0.12 90 1014.6
20260904194100 82 309 0.0 0.0 0.11 0.15 0.11 89 1014.6
20260904193602 83 349 0.0 0.0 0.09 0.13 0.09 89 1014.7
20260904193059 84 3 0.0 0.0 0.04 0.08 0.04 87 1014.7
20260904192559 84 228 0.0 1.0 0.00 0.04 0.00 87 1014.7
20260904192057 85 189 0.0 1.0 0.00 0.04 0.00 86 1014.5
20260904191557 85 194 0.0 1.0 0.00 0.04 0.00 86 1014.3
20260904191056 85 158 0.0 3.0 0.00 0.04 0.00 86 1014.3
20260904190556 86 110 0.0 5.0 0.00 0.04 0.00 85 1014.5
20260904190057 87 208 0.0 5.0 0.00 0.04 0.00 85 1014.4
20260904185554 87 311 0.0 3.0 0.00 0.04 0.00 84 1014.4
20260904185053 88 136 0.0 3.0 0.00 0.04 0.00 84 1014.5
20260904184553 87 176 0.0 1.0 0.00 0.04 0.00 86 1014.5
20260904184053 87 156 0.0 3.0 0.00 0.04 0.00 85 1014.5
20260904183552 87 153 0.0 4.0 0.00 0.04 0.00 85 1014.5
20260904183052 88 311 0.0 4.0 0.00 0.04 0.00 84 1014.6
20260904182551 89 309 0.0 6.0 0.00 0.04 0.00 83 1014.7
20260904182050 89 347 0.0 6.0 0.00 0.04 0.00 82 1014.8
20260904181554 89 322 0.0 3.0 0.00 0.04 0.00 82 1014.8
20260904181048 90 169 0.0 4.0 0.00 0.04 0.00 81 1014.9
20260904180550 91 30 1.0 4.0 0.00 0.04 0.00 77 1014.8
20260904180047 92 93 0.0 2.0 0.00 0.04 0.00 72 1014.6
20260904175544 93 70 0.0 3.0 0.00 0.04 0.00 73 1014.6
20260904175043 93 177 0.0 3.0 0.00 0.04 0.00 73 1014.7
20260904174547 92 101 0.0 2.0 0.00 0.04 0.00 75 1014.6
20260904174039 91 174 0.0 1.0 0.00 0.04 0.00 80 1014.6
20260904173541 90 128 0.0 1.0 0.00 0.04 0.00 80 1014.8
20260904173036 90 171 0.0 2.0 0.00 0.04 0.00 80 1014.9
20260904172537 90 306 0.0 2.0 0.00 0.04 0.00 78 1015.0
20260904172034 90 188 0.0 1.0 0.00 0.04 0.00 81 1015.0
20260904171542 90 139 0.0 1.0 0.00 0.04 0.00 80 1015.2
20260904171031 89 254 0.0 1.0 0.00 0.04 0.00 83 1015.2
20260904170531 89 278 0.0 0.0 0.00 0.04 0.00 82 1015.2
20260904170029 89 278 0.0 0.0 0.00 0.04 0.00 82 1015.4
20260904165531 89 278 0.0 1.0 0.00 0.07 0.00 81 1015.5
20260904165028 90 163 0.0 1.0 0.00 0.07 0.00 78 1015.6
20260904164527 90 91 0.0 0.0 0.00 0.07 0.00 79 1015.6
20260904164025 89 310 0.0 0.0 0.00 0.07 0.00 80 1015.7
20260904163524 88 301 0.0 0.0 0.00 0.07 0.00 80 1015.8
20260904163029 88 150 0.0 2.0 0.00 0.07 0.00 82 1015.8
20260904162524 89 120 0.0 0.0 0.00 0.07 0.00 83 1015.8
20260904162023 89 229 0.0 1.0 0.00 0.07 0.00 83 1015.9
20260904161527 88 255 0.0 0.0 0.00 0.07 0.00 81 1016.0
20260904161018 88 114 0.0 2.0 0.00 0.07 0.00 82 1016.0
20260904160517 88 134 0.0 2.0 0.00 0.07 0.00 82 1016.1
20260904160017 88 217 0.0 2.0 0.00 0.07 0.00 83 1016.2
20260904155515 87 130 0.0 2.0 0.00 0.23 0.00 83 1016.3
20260904155013 87 150 0.0 1.0 0.00 0.23 0.00 83 1016.3
20260904154512 87 189 0.0 1.0 0.00 0.23 0.00 84 1016.2
20260904154010 87 78 0.0 1.0 0.00 0.23 0.00 83 1016.2
20260904153510 87 327 0.0 0.0 0.00 0.23 0.00 84 1016.1
20260904153008 86 135 0.0 3.0 0.00 0.23 0.00 85 1016.0
20260904152507 86 130 0.0 3.0 0.00 0.23 0.00 84 1016.2
20260904152005 86 231 0.0 0.0 0.00 0.23 0.00 85 1016.2
20260904151505 86 257 0.0 0.0 0.00 0.23 0.00 85 1016.2
20260904151003 86 333 0.0 0.0 0.00 0.23 0.00 84 1016.0
20260904150502 85 97 0.0 0.0 0.00 0.23 0.00 86 1016.0
20260904150100 85 141 0.0 0.0 0.00 0.23 0.00 85 1015.9
20260904145556 85 103 0.0 1.0 0.00 0.26 0.00 86 1016.0
20260904145055 84 233 0.0 1.0 0.00 0.26 0.00 86 1015.9
20260904144555 84 229 0.0 1.0 0.00 0.26 0.00 88 1015.9
20260904144054 84 316 0.0 1.0 0.00 0.26 0.00 88 1015.9
20260904143552 83 203 0.0 1.0 0.00 0.26 0.00 88 1016.0
20260904143049 83 248 0.0 2.0 0.00 0.26 0.00 88 1015.9
20260904142551 83 278 0.0 2.0 0.00 0.26 0.00 88 1015.9
20260904142047 83 246 0.0 0.0 0.00 0.26 0.00 89 1015.8
20260904141545 82 246 0.0 0.0 0.00 0.26 0.00 89 1015.8
20260904141042 82 250 0.0 0.0 0.00 0.26 0.00 90 1015.8
20260904140541 81 122 0.0 2.0 0.00 0.26 0.00 91 1015.7
20260904140039 81 288 0.0 2.0 0.00 0.26 0.00 91 1015.7
20260904135637 81 138 0.0 1.0 0.00 0.26 0.00 93 1015.8
20260904135035 81 157 0.0 1.0 0.00 0.26 0.00 94 1015.7
20260904134535 80 232 0.0 1.0 0.00 0.26 0.00 95 1015.7
20260904134031 80 160 0.0 1.0 0.00 0.26 0.00 95 1015.7
20260904133531 80 134 0.0 1.0 0.00 0.26 0.00 95 1015.7
20260904133030 80 134 0.0 1.0 0.00 0.26 0.00 95 1015.6
20260904132529 79 122 0.0 1.0 0.00 0.26 0.00 96 1015.6
20260904132027 79 153 0.0 0.0 0.00 0.26 0.00 96 1015.7
20260904131527 79 314 0.0 0.0 0.00 0.26 0.00 96 1015.6
20260904131026 79 314 0.0 0.0 0.00 0.26 0.00 96 1015.7
20260904130532 79 259 0.0 0.0 0.00 0.26 0.00 96 1015.7
20260904130025 79 259 0.0 0.0 0.00 0.26 0.00 96 1015.7
20260904125525 79 259 0.0 0.0 0.00 0.26 0.00 96 1015.7
20260904125024 79 258 0.0 0.0 0.00 0.26 0.00 96 1015.7
20260904124522 79 259 0.0 0.0 0.00 0.26 0.00 96 1015.5
20260904124019 78 258 0.0 0.0 0.00 0.26 0.00 96 1015.5
20260904123517 78 259 0.0 0.0 0.00 0.26 0.00 96 1015.4
20260904123017 78 259 0.0 0.0 0.00 0.26 0.00 96 1015.4
20260904122516 78 259 0.0 0.0 0.00 0.26 0.00 96 1015.3
20260904122015 78 258 0.0 0.0 0.00 0.26 0.00 96 1015.3
20260904121513 78 259 0.0 0.0 0.00 0.26 0.00 96 1015.2
20260904121012 77 258 0.0 0.0 0.00 0.26 0.00 96 1015.3
20260904120509 77 258 0.0 0.0 0.00 0.26 0.00 96 1015.2
20260904120109 77 259 0.0 0.0 0.00 0.26 0.00 96 1015.1
20260904115509 77 259 0.0 0.0 0.00 0.26 0.00 96 1015.1
20260904115008 76 259 0.0 0.0 0.00 0.26 0.00 95 1015.0
20260904114507 76 258 0.0 0.0 0.00 0.26 0.00 95 1015.1
20260904114007 76 258 0.0 0.0 0.00 0.26 0.00 95 1015.0
20260904113505 76 258 0.0 0.0 0.00 0.26 0.00 95 1015.0
20260904113009 76 258 0.0 0.0 0.00 0.26 0.00 95 1014.9
20260904112503 76 258 0.0 0.0 0.00 0.26 0.00 95 1014.8
20260904112003 76 258 0.0 0.0 0.00 0.26 0.00 95 1014.8
20260904111505 76 258 0.0 0.0 0.00 0.26 0.00 95 1014.8
20260904111002 76 258 0.0 0.0 0.00 0.26 0.00 95 1014.8
20260904110502 76 258 0.0 0.0 0.00 0.26 0.00 95 1014.7
20260904110002 76 258 0.0 0.0 0.00 0.26 0.00 95 1014.7
20260904105503 76 258 0.0 0.0 0.00 0.26 0.00 95 1014.6
20260904105101 76 258 0.0 0.0 0.00 0.26 0.00 95 1014.7
20260904104606 76 258 0.0 0.0 0.00 0.26 0.00 95 1014.6
20260904104059 76 259 0.0 0.0 0.00 0.26 0.00 95 1014.6
20260904103557 76 258 0.0 0.0 0.00 0.26 0.00 95 1014.6
20260904103109 76 259 0.0 0.0 0.00 0.26 0.00 95 1014.5
20260904102557 76 259 0.0 0.0 0.00 0.26 0.00 95 1014.5
20260904102056 76 258 0.0 0.0 0.00 0.26 0.00 95 1014.5
20260904101556 76 258 0.0 0.0 0.00 0.26 0.00 95 1014.5
20260904101054 76 258 0.0 0.0 0.00 0.26 0.00 95 1014.4
20260904100554 76 259 0.0 0.0 0.00 0.26 0.00 95 1014.5
20260904100054 75 258 0.0 0.0 0.00 0.26 0.00 95 1014.4
20260904095553 76 258 0.0 0.0 0.00 0.26 0.00 95 1014.5
20260904095052 76 258 0.0 0.0 0.00 0.26 0.00 95 1014.4
20260904094552 76 258 0.0 0.0 0.00 0.26 0.00 95 1014.4
20260904094050 76 258 0.0 0.0 0.00 0.26 0.00 95 1014.2
20260904093550 76 258 0.0 0.0 0.00 0.26 0.00 95 1014.2
20260904093049 76 258 0.0 0.0 0.00 0.26 0.00 95 1014.2
20260904092548 76 259 0.0 0.0 0.00 0.26 0.00 95 1014.2
20260904092050 76 258 0.0 0.0 0.00 0.26 0.00 95 1014.1
20260904091603 76 258 0.0 0.0 0.00 0.26 0.00 95 1014.2
20260904091050 76 258 0.0 0.0 0.00 0.26 0.00 95 1014.1
20260904090546 76 259 0.0 0.0 0.00 0.26 0.00 95 1014.1
20260904090045 76 258 0.0 0.0 0.00 0.26 0.00 95 1014.1
20260904085544 76 258 0.0 0.0 0.00 0.26 0.00 95 1014.1
20260904085047 76 259 0.0 0.0 0.00 0.26 0.00 95 1014.1
20260904084544 76 259 0.0 0.0 0.00 0.26 0.00 95 1014.1
20260904084042 76 258 0.0 0.0 0.00 0.26 0.00 95 1014.1
20260904083542 76 259 0.0 0.0 0.00 0.26 0.00 95 1014.0
20260904083102 76 258 0.0 0.0 0.00 0.26 0.00 95 1014.0
20260904082540 76 259 0.0 0.0 0.00 0.26 0.00 95 1014.0
20260904082043 76 258 0.0 0.0 0.00 0.26 0.00 95 1014.0
20260904081539 76 258 0.0 0.0 0.00 0.26 0.00 95 1014.1
20260904081038 76 259 0.0 0.0 0.00 0.26 0.00 95 1014.1
20260904080538 76 258 0.0 0.0 0.00 0.26 0.00 95 1014.1
20260904080037 76 258 0.0 0.0 0.00 0.26 0.00 95 1014.1
20260904075538 76 258 0.0 0.0 0.00 0.26 0.00 95 1014.1
20260904075040 76 259 0.0 0.0 0.00 0.26 0.00 95 1014.1
20260904074558 76 258 0.0 0.0 0.00 0.26 0.00 95 1014.1
20260904074034 76 258 0.0 0.0 0.00 0.26 0.00 95 1014.0
20260904073534 76 258 0.0 0.0 0.00 0.26 0.00 95 1014.1
20260904073036 76 258 0.0 0.0 0.00 0.26 0.00 95 1014.1
20260904072533 76 258 0.0 0.0 0.00 0.26 0.00 95 1014.1
20260904072032 76 259 0.0 0.0 0.00 0.26 0.00 95 1014.1
20260904071531 76 258 0.0 0.0 0.00 0.26 0.00 95 1014.2
20260904071035 76 259 0.0 0.0 0.00 0.26 0.00 95 1014.0
20260904070530 76 258 0.0 0.0 0.00 0.26 0.00 95 1014.1
20260904070029 76 258 0.0 0.0 0.00 0.26 0.00 95 1014.1
20260904065533 76 259 0.0 0.0 0.00 0.26 0.00 95 1014.2